Home   Weather   Herzliya   Past weeks

Flag for Israel Past Weather in Herzliya, Israel — Yesterday and Last 2 Weeks

Now
70 °F

Sunny.


Feels Like: 70 °F
Forecast: 60 / 79 °F
Wind: 17 mph from Northwest

Location: Dov Airport

Current Time: Apr 25, 2017 at 2:06:30 pm

Latest Report: Apr 25, 2017 at 1:50 pm


Visibility: 10 mi

Pressure: 30.07 "Hg

Humidity: 53%

Dew Point: 52 °F

Location of HerzliyaLocation

Past Weather in Herzliya — Graph

°F

Herzliya Temperature Yesterday

Maximum temperature yesterday: 68 °F (at 11:50 am)
Minimum temperature yesterday: 63 °F (at 5:30 am)
Average temperature yesterday: 66 °F

High & Low Weather Summary for the Past Weeks

 TemperatureHumidityPressure
High88 °F (Apr 12, 1:50 pm)88% (Apr 12, 5:30 am)30.12 "Hg (Apr 12, 5:30 am)
Low57 °F (Apr 17, 6:00 am)19% (Apr 12, 1:50 pm)29.65 "Hg (Apr 22, 4:50 pm)
Average69 °F63%29.95 "Hg
* Reported Apr 10 12:50 pm — Apr 25 12:50 pm, Herzliya, Weather by CustomWeather, © 2017

Note: Actual official high and low records may vary slightly from our data, if they occured in-between our weather recording intervals... More about our weather records

Advertising

Herzliya Weather History for the Previous 24 Hours

Scroll right to see more
 ConditionsComfort  
Time TempWeatherWind HumidityBarometerVisibility
12:50 pm
Tue, Apr 25
70 °FSunny.16 mph53%30.07 "Hg10 mi
11:50 am68 °FSunny.15 mph56%30.09 "Hg10 mi
10:50 am68 °FSunny.13 mph56%30.09 "Hg10 mi
9:50 am66 °FPassing clouds.10 mph56%30.09 "HgN/A
8:50 am66 °FPassing clouds.6 mph56%30.09 "HgN/A
7:50 am63 °FPassing clouds.5 mph64%30.09 "HgN/A
6:50 am59 °FPassing clouds.3 mph68%30.07 "HgN/A
5:50 am59 °FPassing clouds.5 mph68%30.07 "HgN/A
5:30 am59 °FPassing clouds.5 mph68%30.07 "HgN/A
10:50 pm
Mon, Apr 24
64 °FPassing clouds.9 mph56%30.12 "HgN/A
9:50 pm64 °FPassing clouds.9 mph60%30.12 "HgN/A
8:50 pm64 °FPassing clouds.6 mph60%30.09 "HgN/A
7:50 pm64 °FPassing clouds.7 mph60%30.09 "HgN/A
6:50 pm66 °FScattered clouds.9 mph56%30.07 "HgN/A
5:50 pm66 °FScattered clouds.9 mph52%30.07 "HgN/A
4:50 pm68 °FScattered clouds.9 mph49%30.07 "HgN/A
3:50 pm68 °FPassing clouds.12 mph46%30.07 "HgN/A
2:50 pm68 °FPassing clouds.10 mph46%30.07 "HgN/A
Weather by CustomWeather, © 2017

See weather overviewHow to use our weather pages